Location: Borowce
(50.8255°N, 19.6209°E)
Time: 21:44:50
(UTC+00:00)

Lacrosse 5 rocket - Pass Details

Date: 19 May 2025
Orbit: 419 x 516 km, 57.0° (Epoch: 16 June)

Event Time Altitude Azimuth Distance (km) Brightness Sun altitude
Rises 19:45:59 0° 300° (WNW) 2,496 6.2 -9.8°
Reaches altitude 10° 19:48:11 10° 295° (WNW) 1,599 4.8 -10.0°
Maximum altitude 19:51:39 50° 220° (SW) 577 1.3 -10.3°
Enters shadow 19:54:10 16° 148° (SSE) 1,216 2.4 -10.6°
